Time,TemperatureF,DewpointF,PressureIn,WindDirection,WindDirectionDegrees,WindSpeedMPH,WindSpeedGustMPH,Humidity,HourlyPrecipIn,Conditions,Clouds,dailyrainin,SoftwareType,DateUTC
2013-03-06 00:40:00,25.7,22.3,29.99,NW,315,0.0,0.0,87,0.00,,,0.00,WUHU21623XXSP,2013-03-06 06:40:00,
2013-03-06 01:40:00,25.9,22.5,30.01,NNW,338,0.0,0.0,87,0.00,,,0.00,WUHU21623XXSP,2013-03-06 07:40:00,
2013-03-06 02:40:00,25.9,22.3,30.03,NNW,338,0.0,0.0,86,0.00,,,0.00,WUHU21623XXSP,2013-03-06 08:40:00,
2013-03-06 03:40:00,25.9,22.3,30.06,NNW,338,0.0,0.0,86,0.00,,,0.00,WUHU21623XXSP,2013-03-06 09:40:00,
2013-03-06 04:40:00,25.3,21.7,30.10,NNW,338,0.0,0.0,86,0.00,,,0.00,WUHU21623XXSP,2013-03-06 10:40:00,
2013-03-06 05:40:00,25.0,21.4,30.12,NNW,338,0.0,0.0,86,0.00,,,0.00,WUHU21623XXSP,2013-03-06 11:40:00,
2013-03-06 06:40:00,25.7,22.1,30.15,North,0,0.0,0.0,86,0.00,,,0.00,WUHU21623XXSP,2013-03-06 12:40:00,
2013-03-06 07:13:00,26.2,22.6,30.17,NNW,337,0.0,0.0,86,0.00,,,0.00,WUHU21623XXSP,2013-03-06 13:13:00,
2013-03-06 07:18:00,26.2,22.6,30.17,NW,315,0.0,0.0,86,1.34,,,1.34,WUHU21623XXSP,2013-03-06 13:18:00,
2013-03-06 07:23:00,26.4,22.6,30.17,NNW,337,0.0,0.0,86,1.34,,,1.34,WUHU21623XXSP,2013-03-06 13:23:00,
2013-03-06 07:28:00,26.4,22.7,30.18,NNW,337,0.0,0.0,86,1.34,,,1.34,WUHU21623XXSP,2013-03-06 13:28:00,
2013-03-06 07:33:00,26.4,22.5,30.18,NW,315,0.0,0.0,85,1.34,,,1.34,WUHU21623XXSP,2013-03-06 13:33:00,
2013-03-06 07:38:00,26.4,22.5,30.19,NW,315,0.0,0.0,85,1.34,,,1.34,WUHU21623XXSP,2013-03-06 13:38:00,
2013-03-06 07:43:00,26.4,22.5,30.19,NNW,337,0.0,0.0,85,0.00,,,1.34,WUHU21623XXSP,2013-03-06 13:43:00,
2013-03-06 07:48:00,26.4,22.5,30.19,NW,315,0.0,0.0,85,0.00,,,1.34,WUHU21623XXSP,2013-03-06 13:48:00,
2013-03-06 07:53:00,26.6,22.6,30.20,NNW,337,0.0,0.0,85,0.00,,,1.34,WUHU21623XXSP,2013-03-06 13:53:00,
2013-03-06 07:58:00,26.8,22.8,30.20,NNW,337,0.0,0.0,85,0.00,,,1.34,WUHU21623XXSP,2013-03-06 13:58:00,
2013-03-06 08:03:00,26.8,22.8,30.20,NW,315,0.0,0.0,85,0.00,,,1.34,WUHU21623XXSP,2013-03-06 14:03:00,
2013-03-06 08:08:00,27.0,22.7,30.21,North,0,0.0,0.0,84,0.00,,,1.34,WUHU21623XXSP,2013-03-06 14:08:00,
2013-03-06 08:13:00,27.1,22.7,30.20,NNW,337,0.0,0.0,84,0.00,,,1.34,WUHU21623XXSP,2013-03-06 14:13:00,
2013-03-06 08:18:00,27.1,22.9,30.21,NNW,337,0.0,0.0,84,0.00,,,1.34,WUHU21623XXSP,2013-03-06 14:18:00,
2013-03-06 08:23:00,27.3,23.1,30.21,NNW,337,0.0,0.0,84,0.00,,,1.34,WUHU21623XXSP,2013-03-06 14:23:00,
2013-03-06 08:28:00,27.3,23.1,30.21,WNW,292,0.0,0.0,84,0.00,,,1.34,WUHU21623XXSP,2013-03-06 14:28:00,
2013-03-06 08:33:00,27.7,23.4,30.21,NNW,337,0.0,0.0,84,0.00,,,1.34,WUHU21623XXSP,2013-03-06 14:33:00,
2013-03-06 08:38:00,27.9,23.3,30.21,NW,315,0.0,0.0,83,0.00,,,1.34,WUHU21623XXSP,2013-03-06 14:38:00,
2013-03-06 08:43:00,28.0,23.5,30.21,NNW,337,0.0,0.0,83,0.00,,,1.34,WUHU21623XXSP,2013-03-06 14:43:00,
2013-03-06 08:48:00,28.2,23.7,30.21,NNW,337,0.0,0.0,83,0.00,,,1.34,WUHU21623XXSP,2013-03-06 14:48:00,
2013-03-06 08:53:00,28.6,23.8,30.21,North,0,0.0,0.0,82,0.00,,,1.34,WUHU21623XXSP,2013-03-06 14:53:00,
2013-03-06 08:58:00,28.8,23.9,30.21,NNW,337,0.0,0.0,82,0.00,,,1.34,WUHU21623XXSP,2013-03-06 14:58:00,
2013-03-06 09:03:00,28.9,24.1,30.22,NW,315,0.0,0.0,82,0.00,,,1.34,WUHU21623XXSP,2013-03-06 15:03:00,
2013-03-06 09:08:00,29.1,24.0,30.22,NW,315,0.0,0.0,81,0.00,,,1.34,WUHU21623XXSP,2013-03-06 15:08:00,
2013-03-06 09:13:00,29.3,24.2,30.22,NNW,337,0.0,0.0,81,0.00,,,1.34,WUHU21623XXSP,2013-03-06 15:13:00,
2013-03-06 09:18:00,29.7,24.3,30.23,NNW,337,0.0,0.0,80,0.00,,,1.34,WUHU21623XXSP,2013-03-06 15:18:00,
2013-03-06 09:24:00,29.8,24.4,30.23,North,0,0.0,0.0,80,0.00,,,1.34,WUHU21623XXSP,2013-03-06 15:24:00,
2013-03-06 09:29:00,30.0,24.6,30.23,NW,315,0.0,0.0,80,0.00,,,1.34,WUHU21623XXSP,2013-03-06 15:29:00,
2013-03-06 09:34:00,30.4,24.7,30.23,NNW,337,0.0,0.0,79,0.00,,,1.34,WUHU21623XXSP,2013-03-06 15:34:00,
2013-03-06 09:39:00,30.6,24.8,30.23,NW,315,0.0,0.0,79,0.00,,,1.34,WUHU21623XXSP,2013-03-06 15:39:00,
2013-03-06 09:44:00,30.7,24.7,30.23,NNW,337,0.0,0.0,78,0.00,,,1.34,WUHU21623XXSP,2013-03-06 15:44:00,
2013-03-06 09:49:00,30.9,24.9,30.23,NNW,337,0.0,0.0,78,0.00,,,1.34,WUHU21623XXSP,2013-03-06 15:49:00,
2013-03-06 09:54:00,31.1,25.1,30.23,NNW,337,0.0,0.0,78,0.00,,,1.34,WUHU21623XXSP,2013-03-06 15:54:00,
2013-03-06 09:59:00,30.9,24.9,30.23,NNW,337,0.0,0.0,78,0.00,,,1.34,WUHU21623XXSP,2013-03-06 15:59:00,
2013-03-06 10:04:00,31.3,25.2,30.23,NW,315,0.0,0.0,78,0.00,,,1.34,WUHU21623XXSP,2013-03-06 16:04:00,
2013-03-06 10:09:00,31.8,25.4,30.24,WNW,292,0.0,0.0,77,0.00,,,1.34,WUHU21623XXSP,2013-03-06 16:09:00,
2013-03-06 10:14:00,32.2,25.8,30.24,NNW,337,0.0,0.0,77,0.00,,,1.34,WUHU21623XXSP,2013-03-06 16:14:00,
2013-03-06 10:19:00,32.4,25.6,30.24,NNW,337,0.0,0.0,76,0.00,,,1.34,WUHU21623XXSP,2013-03-06 16:19:00,
2013-03-06 10:24:00,32.5,25.8,30.24,NNW,337,0.0,0.0,76,0.00,,,1.34,WUHU21623XXSP,2013-03-06 16:24:00,
2013-03-06 10:29:00,33.1,26.3,30.25,NW,315,0.0,0.0,76,0.00,,,1.34,WUHU21623XXSP,2013-03-06 16:29:00,
2013-03-06 10:34:00,33.3,26.1,30.24,NNW,337,0.0,0.0,75,0.00,,,1.34,WUHU21623XXSP,2013-03-06 16:34:00,
2013-03-06 10:39:00,33.6,26.4,30.25,NNW,337,0.0,0.0,75,0.00,,,1.34,WUHU21623XXSP,2013-03-06 16:39:00,
2013-03-06 10:44:00,33.6,26.1,30.25,NW,315,0.0,0.0,74,0.00,,,1.34,WUHU21623XXSP,2013-03-06 16:44:00,
2013-03-06 10:49:00,33.6,26.1,30.25,NW,315,0.0,0.0,74,0.00,,,1.34,WUHU21623XXSP,2013-03-06 16:49:00,
2013-03-06 10:54:00,34.0,26.5,30.25,NW,315,0.0,0.0,74,0.00,,,1.34,WUHU21623XXSP,2013-03-06 16:54:00,
2013-03-06 10:59:00,34.3,26.5,30.25,NW,315,0.0,0.0,73,0.00,,,1.34,WUHU21623XXSP,2013-03-06 16:59:00,
2013-03-06 11:04:00,34.3,26.5,30.25,NNW,337,0.0,0.0,73,0.00,,,1.34,WUHU21623XXSP,2013-03-06 17:04:00,
2013-03-06 11:09:00,34.5,26.7,30.25,NW,315,0.0,0.0,73,0.00,,,1.34,WUHU21623XXSP,2013-03-06 17:09:00,
2013-03-06 11:14:00,34.5,26.3,30.25,NW,315,0.0,0.0,72,0.00,,,1.34,WUHU21623XXSP,2013-03-06 17:14:00,
2013-03-06 11:19:00,34.9,26.7,30.25,North,0,0.0,0.0,72,0.00,,,1.34,WUHU21623XXSP,2013-03-06 17:19:00,
2013-03-06 11:24:00,35.2,26.7,30.25,NNW,337,0.0,0.0,71,0.00,,,1.34,WUHU21623XXSP,2013-03-06 17:24:00,
2013-03-06 11:29:00,35.2,26.7,30.25,NNW,337,0.0,0.0,71,0.00,,,1.34,WUHU21623XXSP,2013-03-06 17:29:00,
2013-03-06 11:34:00,35.4,26.9,30.24,NW,315,0.0,0.0,71,0.00,,,1.34,WUHU21623XXSP,2013-03-06 17:34:00,
2013-03-06 11:39:00,35.8,27.3,30.24,NW,315,0.0,0.0,71,0.00,,,1.34,WUHU21623XXSP,2013-03-06 17:39:00,
2013-03-06 11:44:00,36.3,27.5,30.25,NW,315,0.0,0.0,70,0.00,,,1.34,WUHU21623XXSP,2013-03-06 17:44:00,
2013-03-06 11:49:00,36.3,27.1,30.25,NNW,337,0.0,0.0,69,0.00,,,1.34,WUHU21623XXSP,2013-03-06 17:49:00,
2013-03-06 11:54:00,36.5,26.9,30.25,NW,315,0.0,0.0,68,0.00,,,1.34,WUHU21623XXSP,2013-03-06 17:54:00,
2013-03-06 11:59:00,36.5,27.3,30.25,NNW,337,0.0,0.0,69,0.00,,,1.34,WUHU21623XXSP,2013-03-06 17:59:00,
2013-03-06 12:04:00,36.7,27.5,30.25,NW,315,0.0,0.0,69,0.00,,,1.34,WUHU21623XXSP,2013-03-06 18:04:00,
2013-03-06 12:09:00,37.2,27.6,30.24,WNW,292,0.0,0.0,68,0.00,,,1.34,WUHU21623XXSP,2013-03-06 18:09:00,
2013-03-06 12:14:00,37.4,27.8,30.25,NW,315,0.0,0.0,68,0.00,,,1.34,WUHU21623XXSP,2013-03-06 18:14:00,
2013-03-06 12:19:00,37.9,28.3,30.24,NNW,337,0.0,0.0,68,0.02,,,1.36,WUHU21623XXSP,2013-03-06 18:19:00,
2013-03-06 12:24:00,37.8,27.8,30.24,NW,315,0.0,0.0,67,0.02,,,1.36,WUHU21623XXSP,2013-03-06 18:24:00,
2013-03-06 12:29:00,37.8,27.8,30.24,NNW,337,0.0,0.0,67,0.02,,,1.36,WUHU21623XXSP,2013-03-06 18:29:00,
2013-03-06 12:34:00,37.8,27.4,30.24,NW,315,0.0,0.0,66,0.02,,,1.36,WUHU21623XXSP,2013-03-06 18:34:00,
2013-03-06 12:39:00,37.8,27.4,30.24,NNW,337,0.0,0.0,66,0.02,,,1.36,WUHU21623XXSP,2013-03-06 18:39:00,
2013-03-06 12:44:00,37.9,27.6,30.24,North,0,0.0,0.0,66,0.02,,,1.36,WUHU21623XXSP,2013-03-06 18:44:00,
2013-03-06 12:49:00,37.9,27.6,30.24,NNW,337,0.0,0.0,66,0.02,,,1.36,WUHU21623XXSP,2013-03-06 18:49:00,
2013-03-06 12:54:00,37.9,27.6,30.23,NNW,337,0.0,0.0,66,0.02,,,1.36,WUHU21623XXSP,2013-03-06 18:54:00,
2013-03-06 12:59:00,37.9,27.6,30.23,NW,315,0.0,0.0,66,0.02,,,1.36,WUHU21623XXSP,2013-03-06 18:59:00,
2013-03-06 13:04:00,37.9,27.2,30.23,NNW,337,0.0,0.0,65,0.02,,,1.36,WUHU21623XXSP,2013-03-06 19:04:00,
2013-03-06 13:09:00,37.9,27.6,30.23,NNW,337,0.0,0.0,66,0.02,,,1.36,WUHU21623XXSP,2013-03-06 19:09:00,
2013-03-06 13:14:00,38.3,27.9,30.23,NW,315,0.0,0.0,66,0.02,,,1.36,WUHU21623XXSP,2013-03-06 19:14:00,
2013-03-06 13:19:00,38.5,28.0,30.23,NW,315,0.0,0.0,66,0.00,,,1.36,WUHU21623XXSP,2013-03-06 19:19:00,
2013-03-06 13:24:00,39.4,28.9,30.23,NNW,337,0.0,0.0,66,0.00,,,1.36,WUHU21623XXSP,2013-03-06 19:24:00,
2013-03-06 13:29:00,39.2,27.9,30.23,NW,315,0.0,0.0,64,0.00,,,1.36,WUHU21623XXSP,2013-03-06 19:29:00,
2013-03-06 13:34:00,39.0,28.1,30.23,NW,315,0.0,0.0,65,0.00,,,1.36,WUHU21623XXSP,2013-03-06 19:34:00,
2013-03-06 13:39:00,39.4,28.5,30.23,WNW,292,0.0,0.0,65,0.00,,,1.36,WUHU21623XXSP,2013-03-06 19:39:00,
2013-03-06 13:44:00,39.2,28.3,30.23,NW,315,0.0,0.0,65,0.00,,,1.36,WUHU21623XXSP,2013-03-06 19:44:00,
2013-03-06 13:49:00,38.8,28.0,30.23,NW,315,0.0,0.0,65,0.00,,,1.36,WUHU21623XXSP,2013-03-06 19:49:00,
2013-03-06 13:54:00,39.0,28.1,30.24,NW,315,0.0,0.0,65,0.00,,,1.36,WUHU21623XXSP,2013-03-06 19:54:00,
2013-03-06 13:59:00,38.8,28.0,30.24,NNW,337,0.0,0.0,65,0.00,,,1.36,WUHU21623XXSP,2013-03-06 19:59:00,
2013-03-06 14:04:00,38.8,28.0,30.24,NW,315,0.0,0.0,65,0.00,,,1.36,WUHU21623XXSP,2013-03-06 20:04:00,
2013-03-06 14:09:00,38.7,27.8,30.24,NW,315,0.0,0.0,65,0.00,,,1.36,WUHU21623XXSP,2013-03-06 20:09:00,
2013-03-06 14:14:00,38.3,27.5,30.24,WNW,292,0.0,0.0,65,0.00,,,1.36,WUHU21623XXSP,2013-03-06 20:14:00,
2013-03-06 14:19:00,38.3,27.5,30.24,NW,315,0.0,0.0,65,0.00,,,1.36,WUHU21623XXSP,2013-03-06 20:19:00,
2013-03-06 14:25:00,38.1,27.3,30.25,NNW,337,0.0,0.0,65,0.00,,,1.36,WUHU21623XXSP,2013-03-06 20:25:00,
2013-03-06 14:30:00,37.9,27.6,30.25,WNW,292,0.0,0.0,66,0.00,,,1.36,WUHU21623XXSP,2013-03-06 20:30:00,
2013-03-06 14:35:00,37.4,26.7,30.25,WNW,292,0.0,0.0,65,0.00,,,1.36,WUHU21623XXSP,2013-03-06 20:35:00,
2013-03-06 14:40:00,36.7,26.0,30.25,WNW,292,0.0,0.0,65,0.00,,,1.36,WUHU21623XXSP,2013-03-06 20:40:00,
2013-03-06 14:45:00,36.3,26.0,30.25,WNW,292,0.0,0.0,66,0.00,,,1.36,WUHU21623XXSP,2013-03-06 20:45:00,
2013-03-06 14:50:00,36.0,26.0,30.25,NW,315,0.0,0.0,67,0.00,,,1.36,WUHU21623XXSP,2013-03-06 20:50:00,
2013-03-06 14:55:00,35.8,25.9,30.25,WNW,292,0.0,0.0,67,0.00,,,1.36,WUHU21623XXSP,2013-03-06 20:55:00,
2013-03-06 15:00:00,35.4,25.5,30.25,WNW,292,0.0,0.0,67,0.00,,,1.36,WUHU21623XXSP,2013-03-06 21:00:00,
2013-03-06 15:05:00,35.4,25.9,30.25,WNW,292,0.0,0.0,68,0.00,,,1.36,WUHU21623XXSP,2013-03-06 21:05:00,
2013-03-06 15:10:00,35.4,25.9,30.25,WNW,292,0.0,0.0,68,0.00,,,1.36,WUHU21623XXSP,2013-03-06 21:10:00,
2013-03-06 15:15:00,35.2,25.7,30.25,WNW,292,0.0,0.0,68,0.00,,,1.36,WUHU21623XXSP,2013-03-06 21:15:00,
2013-03-06 15:20:00,35.2,25.7,30.25,WNW,292,0.0,0.0,68,0.00,,,1.36,WUHU21623XXSP,2013-03-06 21:20:00,
2013-03-06 15:25:00,34.9,25.7,30.25,NW,315,0.0,0.0,69,0.00,,,1.36,WUHU21623XXSP,2013-03-06 21:25:00,
2013-03-06 15:30:00,34.7,25.5,30.26,WNW,292,0.0,0.0,69,0.00,,,1.36,WUHU21623XXSP,2013-03-06 21:30:00,
2013-03-06 15:35:00,34.5,25.3,30.25,WNW,292,0.0,0.0,69,0.00,,,1.36,WUHU21623XXSP,2013-03-06 21:35:00,
2013-03-06 15:40:00,34.3,25.2,30.25,WNW,292,0.0,0.0,69,0.00,,,1.36,WUHU21623XXSP,2013-03-06 21:40:00,
2013-03-06 15:45:00,34.3,25.2,30.25,WNW,292,0.0,0.0,69,0.00,,,1.36,WUHU21623XXSP,2013-03-06 21:45:00,
2013-03-06 15:50:00,34.0,24.8,30.25,WNW,292,0.0,0.0,69,0.00,,,1.36,WUHU21623XXSP,2013-03-06 21:50:00,
2013-03-06 15:55:00,33.6,25.0,30.26,WNW,292,0.0,0.0,70,0.00,,,1.36,WUHU21623XXSP,2013-03-06 21:55:00,
2013-03-06 16:00:00,33.4,24.7,30.26,WNW,292,0.0,0.0,70,0.00,,,1.36,WUHU21623XXSP,2013-03-06 22:00:00,
2013-03-06 16:05:00,33.1,24.7,30.26,WNW,292,0.0,0.0,71,0.00,,,1.36,WUHU21623XXSP,2013-03-06 22:05:00,
2013-03-06 16:10:00,32.7,24.3,30.26,WNW,292,0.0,0.0,71,0.00,,,1.36,WUHU21623XXSP,2013-03-06 22:10:00,
2013-03-06 16:15:00,32.4,24.3,30.27,WNW,292,0.0,0.0,72,0.00,,,1.36,WUHU21623XXSP,2013-03-06 22:15:00,
2013-03-06 16:20:00,31.8,23.8,30.27,WNW,292,0.0,0.0,72,0.00,,,1.36,WUHU21623XXSP,2013-03-06 22:20:00,
2013-03-06 16:25:00,31.6,24.0,30.27,WNW,292,0.0,0.0,73,0.00,,,1.36,WUHU21623XXSP,2013-03-06 22:25:00,
2013-03-06 16:30:00,31.3,23.6,30.27,WNW,292,0.0,0.0,73,0.00,,,1.36,WUHU21623XXSP,2013-03-06 22:30:00,
2013-03-06 16:35:00,31.1,23.4,30.28,WNW,292,0.0,0.0,73,0.00,,,1.36,WUHU21623XXSP,2013-03-06 22:35:00,
2013-03-06 16:40:00,30.9,23.6,30.28,NW,315,0.0,0.0,74,0.00,,,1.36,WUHU21623XXSP,2013-03-06 22:40:00,
2013-03-06 16:45:00,30.7,23.4,30.28,WNW,292,0.0,0.0,74,0.00,,,1.36,WUHU21623XXSP,2013-03-06 22:45:00,
2013-03-06 16:50:00,30.4,23.4,30.27,WNW,292,0.0,0.0,75,0.00,,,1.36,WUHU21623XXSP,2013-03-06 22:50:00,
2013-03-06 16:55:00,30.4,23.4,30.27,WNW,292,0.0,0.0,75,0.00,,,1.36,WUHU21623XXSP,2013-03-06 22:55:00,
2013-03-06 17:00:00,30.2,23.2,30.27,WNW,292,0.0,0.0,75,0.00,,,1.36,WUHU21623XXSP,2013-03-06 23:00:00,
2013-03-06 17:05:00,30.0,23.0,30.27,WNW,292,0.0,0.0,75,0.00,,,1.36,WUHU21623XXSP,2013-03-06 23:05:00,
2013-03-06 17:10:00,30.0,23.3,30.27,WNW,292,0.0,0.0,76,0.00,,,1.36,WUHU21623XXSP,2013-03-06 23:10:00,
2013-03-06 17:15:00,29.8,23.1,30.27,WNW,292,0.0,0.0,76,0.00,,,1.36,WUHU21623XXSP,2013-03-06 23:15:00,
2013-03-06 17:20:00,29.5,22.8,30.28,WNW,292,0.0,0.0,76,0.00,,,1.36,WUHU21623XXSP,2013-03-06 23:20:00,
2013-03-06 17:25:00,29.3,22.6,30.27,WNW,292,0.0,0.0,76,0.00,,,1.36,WUHU21623XXSP,2013-03-06 23:25:00,
2013-03-06 17:30:00,29.1,22.8,30.27,NW,315,0.0,0.0,77,0.00,,,1.36,WUHU21623XXSP,2013-03-06 23:30:00,
2013-03-06 17:35:00,28.9,22.6,30.28,NW,315,0.0,0.0,77,0.00,,,1.36,WUHU21623XXSP,2013-03-06 23:35:00,
2013-03-06 17:40:00,28.8,22.4,30.28,WNW,292,0.0,0.0,77,0.00,,,1.36,WUHU21623XXSP,2013-03-06 23:40:00,
2013-03-06 17:46:00,28.6,22.5,30.28,WNW,292,0.0,0.0,78,0.00,,,1.36,WUHU21623XXSP,2013-03-06 23:46:00,
2013-03-06 17:51:00,28.6,22.5,30.28,WNW,292,0.0,0.0,78,0.00,,,1.36,WUHU21623XXSP,2013-03-06 23:51:00,
2013-03-06 17:56:00,28.2,22.2,30.28,WNW,292,0.0,0.0,78,0.00,,,1.36,WUHU21623XXSP,2013-03-06 23:56:00,
2013-03-06 18:01:00,28.2,22.2,30.29,West,270,0.0,0.0,78,0.00,,,1.36,WUHU21623XXSP,2013-03-07 00:01:00,
2013-03-06 18:06:00,28.0,22.3,30.29,WNW,292,0.0,0.0,79,0.00,,,1.36,WUHU21623XXSP,2013-03-07 00:06:00,
2013-03-06 18:11:00,28.0,22.3,30.29,WNW,292,0.0,0.0,79,0.00,,,1.36,WUHU21623XXSP,2013-03-07 00:11:00,
2013-03-06 18:16:00,28.0,22.3,30.29,WNW,292,0.0,0.0,79,0.00,,,1.36,WUHU21623XXSP,2013-03-07 00:16:00,
2013-03-06 18:21:00,27.7,22.3,30.29,WNW,292,0.0,0.0,80,0.00,,,1.36,WUHU21623XXSP,2013-03-07 00:21:00,
2013-03-06 18:26:00,27.7,22.3,30.29,WNW,292,0.0,0.0,80,0.00,,,1.36,WUHU21623XXSP,2013-03-07 00:26:00,
2013-03-06 18:31:00,27.7,22.3,30.29,WNW,292,0.0,0.0,80,0.00,,,1.36,WUHU21623XXSP,2013-03-07 00:31:00,
2013-03-06 18:36:00,27.7,22.0,30.29,NW,315,0.0,0.0,79,0.00,,,1.36,WUHU21623XXSP,2013-03-07 00:36:00,
2013-03-06 18:41:00,27.7,22.3,30.29,NW,315,0.0,0.0,80,0.00,,,1.36,WUHU21623XXSP,2013-03-07 00:41:00,
2013-03-06 19:40:00,27.3,22.2,30.29,WNW,293,0.0,0.0,81,0.00,,,0.00,WUHU21623XXSP,2013-03-07 01:40:00,
2013-03-06 20:40:00,27.1,22.0,30.28,WNW,293,0.0,0.0,81,0.00,,,0.02,WUHU21623XXSP,2013-03-07 02:40:00,
2013-03-06 21:40:00,26.8,22.0,30.27,NW,315,0.0,0.0,82,0.00,,,0.02,WUHU21623XXSP,2013-03-07 03:40:00,
2013-03-06 22:40:00,26.4,21.6,30.26,NNW,338,0.0,0.0,82,0.00,,,0.02,WUHU21623XXSP,2013-03-07 04:40:00,
2013-03-06 23:40:00,26.2,21.4,30.27,WNW,293,0.0,0.0,82,0.00,,,0.02,WUHU21623XXSP,2013-03-07 05:40:00,